This is the latest recevied weather packets stored in our database for station/object KC5TIL-3. If no packets are shown the sender has not sent any weather packets the latest 10 day(s).
| Time | Temp. | Humidity | Pressure | Rain* | Wind** | Luminosity | Snow |
|---|---|---|---|---|---|---|---|
| 1788132911 | 36.67° C | 10% | 1009.8 hPa | 0 mm | 1.79 m/s, 205° | - | - |
| 1788132613 | 36.67° C | 10% | 1009.8 hPa | 0 mm | 2.68 m/s, 179° | - | - |
| 1788132311 | 36.67° C | 10% | 1009.8 hPa | 0 mm | 3.13 m/s, 229° | - | - |
| 1788132013 | 36.67° C | 10% | 1009.8 hPa | 0 mm | 2.68 m/s, 141° | - | - |
| 1788131715 | 37.22° C | 10% | 1009.8 hPa | 0 mm | 2.68 m/s, 222° | - | - |
| 1788131414 | 37.22° C | 10% | 1009.8 hPa | 0 mm | 0 m/s | - | - |
| 1788131115 | 37.22° C | 10% | 1009.8 hPa | 0 mm | 3.13 m/s, 136° | - | - |
| 1788130817 | 36.67° C | 10% | 1009.8 hPa | 0 mm | 4.47 m/s, 117° | - | - |
| 1788130516 | 36.67° C | 10% | 1009.8 hPa | 0 mm | 4.92 m/s, 115° | - | - |
| 1788130218 | 37.22° C | 10% | 1009.8 hPa | 0 mm | 4.47 m/s, 140° | - | - |
| 1788129920 | 37.22° C | 10% | 1009.8 hPa | 0 mm | 3.13 m/s, 116° | - | - |
| 1788129618 | 36.67° C | 10% | 1009.8 hPa | 0 mm | 4.02 m/s, 122° | - | - |
| 1788129320 | 36.67° C | 10% | 1009.8 hPa | 0 mm | 3.13 m/s, 138° | - | - |
| 1788129022 | 37.22° C | 10% | 1009.8 hPa | 0 mm | 3.13 m/s, 210° | - | - |
| 1788128721 | 37.22° C | 10% | 1009.8 hPa | 0 mm | 3.13 m/s, 147° | - | - |
| 1788128422 | 37.22° C | 10% | 1009.8 hPa | 0 mm | 2.68 m/s, 172° | - | - |
| 1788128124 | 37.22° C | 10% | 1009.8 hPa | 0 mm | 3.13 m/s, 153° | - | - |
| 1788127823 | 37.22° C | 10% | 1009.8 hPa | 0 mm | 4.02 m/s, 136° | - | - |
| 1788127525 | 37.22° C | 10% | 1009.8 hPa | 0 mm | 3.58 m/s, 112° | - | - |
| 1788127222 | 37.22° C | 10% | 1009.8 hPa | 0 mm | 3.58 m/s, 163° | - | - |
| 1788126920 | 37.78° C | 10% | 1009.8 hPa | 0 mm | 2.24 m/s, 218° | - | - |
| 1788126622 | 37.22° C | 10% | 1009.8 hPa | 0 mm | 3.58 m/s, 146° | - | - |
| 1788126324 | 37.22° C | 10% | 1010.8 hPa | 0 mm | 3.13 m/s, 176° | - | - |
| 1788126023 | 37.22° C | 10% | 1010.8 hPa | 0 mm | 4.02 m/s, 124° | - | - |
| 1788125720 | 37.78° C | 10% | 1010.8 hPa | 0 mm | 1.79 m/s, 216° | - | - |
* Rain latest hour (hover to see other rain measurements)
** Current wind speed in m/s (hover to see current wind gust speed)